Trinity Center, CA

11:17 PM PST on November 18, 2017 (GMT -0800)
Trinity Center

Weather History for KO86 - February, 2013

Change the Weather History Date:

Saturday, February 2, 2013

  Actual Average (KMHS) Record (KMHS)
Temperature  
Mean Temperature 40 °F -  
Max Temperature 55 °F 42 °F 65 °F (1962)
Min Temperature 26 °F 26 °F 0 °F (1932)
Degree Days  
Heating Degree Days 24    
Moisture  
Dew Point 30 °F    
Average Humidity 85    
Maximum Humidity 100    
Minimum Humidity 41    
Precipitation  
Precipitation 0.00 in - - ()
Sea Level Pressure  
Sea Level Pressure 30.34 in    
Wind  
Wind Speed 1 mph (WNW)    
Max Wind Speed 5 mph    
Max Gust Speed -    
Visibility 9 miles    
Events      
Averages and records for this station are not official NWS values.
T = Trace of Precipitation, MM = Missing Value Source: NWS Daily Summary

Daily Weather History Graph

Daily Weather History Graph

Search for Another Location

Airport or City:

Trip Planner

Search our weather history database for the weather conditions in past years. The results will help you decide how hot, cold, wet, or windy it might be!

Date:

Astronomy

Feb. 02, 2013 Rise Set
Actual Time 7:19 AM PST 5:29 PM PST
Civil Twilight 6:50 AM PST 5:58 PM PST
Nautical Twilight 6:18 AM PST 6:31 PM PST
Astronomical Twilight 5:45 AM PST 7:03 PM PST
Moon No Moon Rise 10:30 AM PST (2/2)
Length of Visible Light 11h 07m
Length of Day
10h 09m
Waning Gibbous, 58% of the Moon is Illuminated
Feb 2
Waning Gibbous
Feb 3
Last Quarter
Feb 9
New
Feb 17
First Quarter
Feb 25
Full

Hourly Weather History & Observations

Time (PST) Temp. Windchill Dew Point Humidity Pressure Visibility Wind Dir Wind Speed Gust Speed Precip Events Conditions
12:10 AM 28.4 °F - 26.6 °F 93% 30.34 in 8.0 mi Calm Calm - N/A   Clear
12:30 AM 28.4 °F 24.6 °F 26.6 °F 93% 30.35 in 10.0 mi West 3.5 mph - N/A   Clear
12:50 AM 28.4 °F 24.6 °F 26.6 °F 93% 30.35 in 7.0 mi West 3.5 mph - N/A   Clear
1:10 AM 28.4 °F - 26.6 °F 93% 30.35 in 10.0 mi Calm Calm - N/A   Clear
1:30 AM 28.4 °F 24.6 °F 26.6 °F 93% 30.35 in 10.0 mi West 3.5 mph - N/A   Clear
1:50 AM 28.4 °F - 26.6 °F 93% 30.36 in 10.0 mi Calm Calm - N/A   Clear
2:10 AM 28.4 °F - 26.6 °F 93% 30.37 in 10.0 mi Calm Calm - N/A   Clear
2:30 AM 28.4 °F - 26.6 °F 93% 30.37 in 10.0 mi Calm Calm - N/A   Clear
2:50 AM 28.4 °F 24.6 °F 26.6 °F 93% 30.37 in 10.0 mi West 3.5 mph - N/A   Clear
3:10 AM 28.4 °F - 26.6 °F 93% 30.36 in 10.0 mi Calm Calm - N/A   Clear
3:30 AM 28.4 °F 24.6 °F 26.6 °F 93% 30.36 in 10.0 mi WNW 3.5 mph - N/A   Clear
3:50 AM 28.4 °F - 26.6 °F 93% 30.36 in 10.0 mi Calm Calm - N/A   Clear
4:10 AM 28.4 °F - 26.6 °F 93% 30.36 in 10.0 mi Calm Calm - N/A   Clear
4:30 AM 28.4 °F - 26.6 °F 93% 30.36 in 10.0 mi Calm Calm - N/A   Clear
4:50 AM 28.4 °F - 26.6 °F 93% 30.35 in 10.0 mi Calm Calm - N/A   Clear
5:10 AM 28.4 °F - 26.6 °F 93% 30.36 in 10.0 mi Calm Calm - N/A   Clear
5:30 AM 28.4 °F - 26.6 °F 93% 30.36 in 10.0 mi Calm Calm - N/A   Clear
5:50 AM 28.4 °F - 26.6 °F 93% 30.36 in 7.0 mi Calm Calm - N/A   Clear
6:10 AM 28.4 °F - 26.6 °F 93% 30.35 in 10.0 mi Calm Calm - N/A   Clear
6:30 AM 26.6 °F - 26.6 °F 100% 30.35 in 10.0 mi Calm Calm - N/A   Clear
6:50 AM 26.6 °F - 26.6 °F 100% 30.36 in 10.0 mi Calm Calm - N/A   Clear
7:10 AM 28.4 °F - 26.6 °F 93% 30.36 in 10.0 mi Calm Calm - N/A   Clear
7:30 AM 26.6 °F 22.6 °F 26.6 °F 100% 30.37 in 10.0 mi WNW 3.5 mph - N/A   Clear
7:50 AM 26.6 °F - 26.6 °F 100% 30.37 in 7.0 mi Calm Calm - N/A   Clear
8:30 AM 28.4 °F - 26.6 °F 93% 30.39 in 6.0 mi Calm Calm - N/A   Clear
8:50 AM 30.2 °F - 28.4 °F 93% 30.39 in 6.0 mi Calm Calm - N/A   Clear
9:10 AM 32.0 °F - 28.4 °F 87% 30.39 in 2.0 mi Calm Calm - N/A   Clear
9:30 AM 32.0 °F - 30.2 °F 93% 30.39 in 10.0 mi Calm Calm - N/A   Clear
9:50 AM 33.8 °F - 32.0 °F 93% 30.39 in 10.0 mi Calm Calm - N/A   Clear
10:10 AM 35.6 °F - 32.0 °F 87% 30.39 in 10.0 mi Calm Calm - N/A   Clear
10:30 AM 35.6 °F - 32.0 °F 87% 30.39 in 10.0 mi Calm Calm - N/A   Clear
10:50 AM 35.6 °F - 30.2 °F 81% 30.39 in 10.0 mi Calm Calm - N/A   Clear
11:10 AM 37.4 °F - 30.2 °F 75% 30.38 in 10.0 mi Calm Calm - N/A   Clear
11:30 AM 39.2 °F - 32.0 °F 75% 30.37 in 10.0 mi Calm Calm - N/A   Clear
11:50 AM 39.2 °F - 32.0 °F 75% 30.36 in 10.0 mi Calm Calm - N/A   Clear
12:10 PM 41.0 °F - 32.0 °F 70% 30.35 in 10.0 mi Calm Calm - N/A   Clear
12:30 PM 44.6 °F 43.1 °F 32.0 °F 61% 30.34 in 10.0 mi NE 3.5 mph - N/A   Clear
12:50 PM 44.6 °F - 32.0 °F 61% 30.33 in 10.0 mi Calm Calm - N/A   Clear
1:10 PM 46.4 °F - 32.0 °F 57% 30.33 in 10.0 mi Calm Calm - N/A   Clear
1:30 PM 46.4 °F - 32.0 °F 57% 30.32 in 10.0 mi Calm Calm - N/A   Clear
2:10 PM 50.0 °F - 35.6 °F 58% 30.30 in 10.0 mi Calm Calm - N/A   Clear
2:30 PM 48.2 °F - 37.4 °F 66% 30.30 in 10.0 mi Calm Calm - N/A   Clear
2:50 PM 50.0 °F - 35.6 °F 58% 30.29 in 10.0 mi Calm Calm - N/A   Clear
3:10 PM 53.6 °F - 39.2 °F 58% 30.28 in 10.0 mi Calm Calm - N/A   Clear
3:30 PM 55.4 °F - 32.0 °F 41% 30.28 in 10.0 mi Calm Calm - N/A   Clear
4:30 PM 46.4 °F - 37.4 °F 71% 30.28 in 10.0 mi Calm Calm - N/A   Clear
4:50 PM 41.0 °F 39.0 °F 35.6 °F 81% 30.28 in 10.0 mi WNW 3.5 mph - N/A   Clear
5:10 PM 41.0 °F 39.0 °F 33.8 °F 76% 30.29 in 10.0 mi West 3.5 mph - N/A   Clear
5:30 PM 41.0 °F 39.0 °F 32.0 °F 70% 30.29 in 10.0 mi West 3.5 mph - N/A   Clear
5:50 PM 39.2 °F - 32.0 °F 75% 30.30 in 10.0 mi Calm Calm - N/A   Clear
6:10 PM 39.2 °F - 32.0 °F 75% 30.30 in 10.0 mi Calm Calm - N/A   Clear
6:30 PM 35.6 °F 31.7 °F 32.0 °F 87% 30.31 in 9.0 mi NW 4.6 mph - N/A   Clear
6:50 PM 35.6 °F 32.8 °F 32.0 °F 87% 30.31 in 10.0 mi NW 3.5 mph - N/A   Clear
7:10 PM 35.6 °F 32.8 °F 32.0 °F 87% 30.31 in 10.0 mi West 3.5 mph - N/A   Clear
7:30 PM 32.0 °F 28.7 °F 32.0 °F 100% 30.32 in 10.0 mi West 3.5 mph - N/A   Clear
7:50 PM 32.0 °F - 32.0 °F 100% 30.31 in 10.0 mi Calm Calm - N/A   Clear
8:10 PM 32.0 °F 28.7 °F 30.2 °F 93% 30.32 in 10.0 mi WSW 3.5 mph - N/A   Clear
8:30 PM 32.0 °F - 30.2 °F 93% 30.32 in 10.0 mi Calm Calm - N/A   Clear
8:50 PM 32.0 °F - 30.2 °F 93% 30.32 in 10.0 mi Calm Calm - N/A   Clear
9:10 PM 32.0 °F 28.7 °F 30.2 °F 93% 30.33 in 10.0 mi West 3.5 mph - N/A   Clear
9:30 PM 32.0 °F - 30.2 °F 93% 30.33 in 9.0 mi Calm Calm - N/A   Clear
9:50 PM 32.0 °F 28.7 °F 28.4 °F 87% 30.33 in 10.0 mi West 3.5 mph - N/A   Clear
10:10 PM 32.0 °F - 28.4 °F 87% 30.32 in 9.0 mi Calm Calm - N/A   Clear
10:30 PM 32.0 °F - 28.4 °F 87% 30.32 in 9.0 mi Calm Calm - N/A   Clear
10:50 PM 30.2 °F - 28.4 °F 93% 30.32 in 9.0 mi Calm Calm - N/A   Clear
11:10 PM 30.2 °F 25.4 °F 28.4 °F 93% 30.33 in 10.0 mi WNW 4.6 mph - N/A   Clear
11:30 PM 30.2 °F - 28.4 °F 93% 30.33 in 4.0 mi Calm Calm - N/A   Clear